This demonstration page uses our WeatherBlox Daily Observations layout. Learn more.

Left ArrowRight Arrow

39.12711, -84.51439

Hourly Observations for July 5, 2021

Temp ( °F °C ) Dew Point ( °F °C ) Humidity (%) Winds ( mph kmh ) Pressure ( in mb ) Visibility ( mi km ) Precip ( " mm )
12:53 am 00:53 Clear with Mist and Fog 72 22.2 69 20.6 91 91 N N/A 30.00 1016 3 5 N/A
1:10 am 01:10 Clear with Mist and Fog 70 21.1 68 20 93 93 S 3 6 30.00 1016 3 4 N/A
1:53 am 01:53 Clear with Mist and Fog 71 21.7 68 20 90 90 N N/A 29.99 1016 2 3 N/A
2:53 am 02:53 Clear with Mist and Fog 70 21.1 68 20 93 93 ENE 3 6 29.99 1016 2 3 N/A
3:16 am 03:16 Clear with Mist and Fog 70 21.1 68 20 93 93 N N/A 30.00 1016 2 3 N/A
3:23 am 03:23 Clear with Mist and Fog 69 20.6 67 19.4 93 93 ENE 3 6 30.00 1016 2 3 N/A
3:33 am 03:33 Clear with Mist and Fog 69 20.6 67 19.4 93 93 N N/A 30.00 1016 2 2 N/A
3:53 am 03:53 Clear with Mist and Fog 69 20.6 68 20 96 96 N N/A 30.00 1016 3 4 N/A
4:53 am 04:53 Clear with Mist and Fog 68 20 67 19.4 96 96 N N/A 30.00 1016 3 4 N/A
5:23 am 05:23 Clear with Mist and Fog 68 20 67 19.4 96 96 N N/A 30.01 1016 2 2 N/A
5:35 am 05:35 Clear with Fog 68 20 67 19.4 96 96 N N/A 30.01 1016 1 1 N/A
5:37 am 05:37 Mostly Cloudy with Fog 68 20 67 19.4 96 96 N N/A 30.02 1017 0 0 N/A
5:45 am 05:45 Mostly Cloudy with Mist and Fog 68 20 67 19.4 96 96 N N/A 30.02 1017 1 1 N/A
5:53 am 05:53 Clear with Mist and Fog 68 20 67 19.4 96 96 N N/A 30.01 1016 2 3 N/A
6:01 am 06:01 Clear with Mist and Fog 68 20 66 18.9 93 93 N N/A 30.02 1017 3 4 N/A
6:20 am 06:20 Sunny with Fog 68 20 66 18.9 93 93 N N/A 30.03 1017 1 1 N/A
6:38 am 06:38 Sunny with Mist and Fog 68 20 66 18.9 93 93 N N/A 30.03 1017 3 5 N/A
6:53 am 06:53 Sunny with Mist and Fog 68 20 67 19.4 96 96 N N/A 30.03 1017 3 5 N/A
7:53 am 07:53 Sunny with Mist and Fog 71 21.7 69 20.6 94 94 N N/A 30.04 1017 4 6 N/A
8:53 am 08:53 Sunny with Mist and Fog 75 23.9 71 21.7 88 88 N N/A 30.06 1018 6 10 N/A
9:53 am 09:53 Sunny 80 26.7 72 22.2 76 76 N N/A 30.06 1018 10 16 N/A
10:53 am 10:53 Sunny 83 28.3 71 21.7 67 67 SW 5 7 30.06 1018 10 16 N/A
11:53 am 11:53 Sunny 84 28.9 71 21.7 65 65 S 6 9 30.06 1018 10 16 N/A
12:53 pm 12:53 Mostly Cloudy 86 30 71 21.7 61 61 VRB 5 7 30.06 1018 10 16 N/A
1:53 pm 13:53 Mostly Cloudy 88 31.1 71 21.7 57 57 W 7 11 30.06 1018 10 16 N/A
2:53 pm 14:53 Partly Cloudy 88 31.1 71 21.7 57 57 SW 7 11 30.05 1018 10 16 N/A
3:53 pm 15:53 Partly Cloudy 88 31.1 72 22.2 59 59 SSW 6 9 30.04 1017 10 16 N/A
4:53 pm 16:53 Mostly Sunny 89 31.7 72 22.2 57 57 S 6 9 30.03 1017 10 16 N/A
5:53 pm 17:53 Sunny 88 31.1 71 21.7 57 57 SSW 8 13 30.02 1017 10 16 N/A
6:53 pm 18:53 Mostly Sunny 86 30 72 22.2 63 63 SSW 6 9 30.02 1017 10 16 N/A
7:53 pm 19:53 Sunny 84 28.9 72 22.2 67 67 SSW 6 9 30.02 1017 10 16 N/A
8:53 pm 20:53 Sunny 82 27.8 71 21.7 69 69 N N/A 30.02 1017 10 16 N/A
9:53 pm 21:53 Clear 76 24.4 71 21.7 85 85 S 3 6 30.04 1017 10 16 N/A
10:53 pm 22:53 Clear 73 22.8 71 21.7 94 94 N N/A 30.05 1018 10 16 N/A
11:53 pm 23:53 Clear 73 22.8 70 21.1 90 90 N N/A 30.06 1018 8 13 N/A

Powered by AerisWeather